Simultaneous Nadir Overpasses (SNOs) Predictions

Prediction of SNOs between AQUA and METOP-B Satellite Orbit:

Table of predicted SNOs for the next 14.0 days since TLE Epoch: 10/31/2025
Index Date (AQUA) Time (AQUA) Lat,Lon (AQUA) SZA (AQUA ) Date (METOP-B) Time (METOP-B) Lat,Lon (METOP-B) SZA (METOP-B ) Distance(km) Time Diff (sec)
1 11/01/2025 05:53:21 -78.01, -87.40 87.50 11/01/2025 05:52:55 -78.02, -87.39 87.50 0.43 26
2 11/01/2025 06:42:39 78.03, 80.20 92.53 11/01/2025 06:43:35 78.03, 80.01 92.54 4.35 56
3 11/03/2025 17:02:01 -77.80, 106.51 86.92 11/03/2025 17:00:53 -77.71, 104.11 87.05 57.22 68
4 11/03/2025 17:51:24 78.03, -86.92 93.31 11/03/2025 17:51:25 78.05, -86.83 93.33 3.25 1
5 11/06/2025 05:00:07 78.00, 106.13 94.03 11/06/2025 04:59:16 78.03, 106.07 94.06 3.62 51
6 11/06/2025 05:49:25 -78.04, -86.39 85.93 11/06/2025 05:49:57 -78.05, -86.48 85.91 2.47 32
7 11/08/2025 16:58:08 -78.06, 106.42 85.19 11/08/2025 16:57:47 -78.06, 106.59 85.19 3.90 21
8 11/08/2025 17:47:26 78.08, -86.02 94.85 11/08/2025 17:48:27 78.08, -85.97 94.85 1.11 61
9 11/11/2025 04:06:49 -78.04, -60.60 84.51 11/11/2025 04:05:38 -78.02, -60.59 84.54 2.53 71
10 11/11/2025 04:56:07 78.07, 106.96 95.52 11/11/2025 04:56:17 78.08, 107.07 95.54 3.17 10
11 11/13/2025 16:04:47 78.06, -60.10 96.18 11/13/2025 16:04:08 78.03, -60.13 96.15 2.77 39



Historial Predications of SNOs between AQUA and METOP-B
